This demonstration page uses our WeatherBlox Daily Observations layout. Learn more.

39.29038, -76.61219

Hourly Observations for February 16, 2020

Temp ( °F °C ) Dew Point ( °F °C ) Humidity (%) Winds ( mph kmh ) Pressure ( in mb ) Visibility ( mi km ) Precip ( " mm )
12:54 am 00:54 undefined 32 0 18 -7.8 56 56 undefined N/A 30.32 1027 N/A 0 0
1:54 am 01:54 undefined 32 0 19 -7.2 59 59 undefined N/A 30.3 1026 N/A 0 0
2:54 am 02:54 undefined 32 0 20 -6.7 61 61 undefined N/A 30.27 1025 N/A 0 0
3:54 am 03:54 undefined 32 0 21 -6.1 64 64 undefined N/A 30.25 1024 N/A 0 0
4:54 am 04:54 undefined 32 0 21 -6.1 64 64 undefined N/A 30.24 1024 N/A 0 0
5:54 am 05:54 undefined 32 0 21 -6.1 64 64 undefined N/A 30.23 1024 N/A 0 0
6:54 am 06:54 undefined 32 0 22 -5.6 66 66 undefined N/A 30.23 1024 N/A 0 0
7:54 am 07:54 undefined 32 0 23 -5 69 69 undefined N/A 30.23 1024 N/A 0 0
8:54 am 08:54 undefined 35 1.7 24 -4.4 64 64 undefined N/A 30.23 1024 N/A 0 0
9:54 am 09:54 undefined 37 2.8 24 -4.4 59 59 undefined N/A 30.22 1023 N/A 0 0
10:54 am 10:54 undefined 41 5 24 -4.4 51 51 undefined N/A 30.2 1023 N/A 0 0
11:54 am 11:54 undefined 43 6.1 25 -3.9 49 49 undefined N/A 30.18 1022 N/A 0 0
12:54 pm 12:54 undefined 46 7.8 27 -2.8 47 47 undefined N/A 30.14 1021 N/A 0 0
1:54 pm 13:54 undefined 48 8.9 28 -2.2 46 46 undefined N/A 30.12 1020 N/A 0 0
2:54 pm 14:54 undefined 49 9.4 29 -1.7 46 46 undefined N/A 30.11 1020 N/A 0 0
3:54 pm 15:54 undefined 48 8.9 31 -0.6 52 52 undefined N/A 30.09 1019 N/A 0 0
4:54 pm 16:54 undefined 48 8.9 32 0 54 54 undefined N/A 30.08 1019 N/A 0 0
5:54 pm 17:54 undefined 46 7.8 32 0 58 58 undefined N/A 30.09 1019 N/A 0 0
6:54 pm 18:54 undefined 46 7.8 30 -1.1 54 54 undefined N/A 30.09 1019 N/A 0 0
7:54 pm 19:54 undefined 44 6.7 30 -1.1 58 58 undefined N/A 30.09 1019 N/A 0 0
8:54 pm 20:54 undefined 43 6.1 32 0 65 65 undefined N/A 30.1 1019 N/A 0 0
9:54 pm 21:54 undefined 43 6.1 32 0 65 65 undefined N/A 30.11 1020 N/A 0 0
10:54 pm 22:54 undefined 43 6.1 31 -0.6 63 63 undefined N/A 30.12 1020 N/A 0 0
11:54 pm 23:54 undefined 43 6.1 31 -0.6 63 63 undefined N/A 30.12 1020 N/A 0 0

Powered by AerisWeather